• In Hungary
  • List of Countries
  • For 7 days
  • Water Temperature
  • Satellite Maps
  • Weather Map
  • News
  • Weather Widgets
  • user-avatar
    Login

    Hourly Weather Smereczne

    Today, 25 September, Tuesday

    Time Temperature Precipitation Wind Pressure Humidity
    00:00 +3°C° 0 mm 4 mps 724 mmHg 79%
    01:00 +3°C° 0 mm 4 mps 724 mmHg 83%
    02:00 +1°C° 0 mm 4 mps 725 mmHg 84%
    03:00 +1°C° 0 mm 4 mps 725 mmHg 84%
    04:00 +1°C° 0 mm 4 mps 725 mmHg 85%
    05:00 +1°C° 0 mm 4 mps 726 mmHg 83%
    06:00 +2°C° 0 mm 5 mps 726 mmHg 81%
    07:00 +2°C° 0 mm 5 mps 727 mmHg 78%
    08:00 +3°C° 0 mm 5 mps 728 mmHg 73%
    09:00 +5°C° 0 mm 6 mps 728 mmHg 67%
    10:00 +7°C° 0 mm 6 mps 729 mmHg 62%
    11:00 +7°C° 0.1 mm 6 mps 729 mmHg 59%
    12:00 +8°C° 0.1 mm 6 mps 729 mmHg 57%
    13:00 +8°C° 0.1 mm 6 mps 729 mmHg 54%
    14:00 +8°C° 0.1 mm 5 mps 730 mmHg 56%
    15:00 +8°C° 0.1 mm 5 mps 730 mmHg 57%
    16:00 +8°C° 0.1 mm 5 mps 730 mmHg 58%
    17:00 +6°C° 0 mm 4 mps 730 mmHg 64%
    18:00 +5°C° 0 mm 3 mps 731 mmHg 69%
    19:00 +4°C° 0 mm 2 mps 731 mmHg 75%
    20:00 +4°C° 0 mm 2 mps 731 mmHg 77%
    21:00 +3°C° 0 mm 2 mps 732 mmHg 78%
    22:00 +3°C° 0 mm 2 mps 732 mmHg 80%
    23:00 +2°C° 0 mm 2 mps 733 mmHg 82%

    Tomorrow, 26 September, Wednesday

    Time Temperature Precipitation Wind Pressure Humidity
    00:00 +3°C° 0 mm 1 mps 733 mmHg 83%
    01:00 +3°C° 0 mm 1 mps 733 mmHg 85%
    02:00 +2°C° 0 mm 1 mps 733 mmHg 87%
    03:00 +2°C° 0 mm 1 mps 733 mmHg 88%
    04:00 +2°C° 0 mm 1 mps 733 mmHg 89%
    05:00 +3°C° 0 mm 1 mps 734 mmHg 86%
    06:00 +4°C° 0 mm 1 mps 734 mmHg 82%
    07:00 +5°C° 0 mm 1 mps 734 mmHg 78%
    08:00 +7°C° 0 mm 1 mps 734 mmHg 69%
    09:00 +8°C° 0 mm 2 mps 734 mmHg 59%
    10:00 +10°C° 0 mm 2 mps 734 mmHg 50%
    11:00 +12°C° 0 mm 2 mps 734 mmHg 46%
    12:00 +13°C° 0 mm 2 mps 734 mmHg 43%
    13:00 +14°C° 0 mm 2 mps 733 mmHg 40%
    14:00 +13°C° 0 mm 2 mps 733 mmHg 43%
    15:00 +13°C° 0 mm 1 mps 732 mmHg 46%
    16:00 +13°C° 0 mm 1 mps 732 mmHg 49%
    17:00 +11°C° 0 mm 1 mps 731 mmHg 52%
    18:00 +10°C° 0 mm 1 mps 731 mmHg 55%
    19:00 +8°C° 0 mm 1 mps 731 mmHg 58%
    20:00 +7°C° 0 mm 2 mps 731 mmHg 59%
    21:00 +7°C° 0 mm 2 mps 731 mmHg 60%
    22:00 +8°C° 0 mm 2 mps 731 mmHg 61%
    23:00 +7°C° 0 mm 2 mps 731 mmHg 62%

    Day after tomorrow, 27 September, Thursday

    Time Temperature Precipitation Wind Pressure Humidity
    00:00 +7°C° 0 mm 2 mps 730 mmHg 64%
    01:00 +7°C° 0 mm 2 mps 730 mmHg 65%
    02:00 +7°C° 0 mm 3 mps 730 mmHg 64%
    03:00 +7°C° 0 mm 3 mps 729 mmHg 62%
    04:00 +7°C° 0 mm 3 mps 729 mmHg 61%
    05:00 +7°C° 0 mm 3 mps 729 mmHg 59%
    06:00 +7°C° 0 mm 3 mps 729 mmHg 57%
    07:00 +8°C° 0 mm 3 mps 729 mmHg 56%
    08:00 +9°C° 0 mm 3 mps 729 mmHg 54%
    09:00 +10°C° 0 mm 3 mps 729 mmHg 52%
    10:00 +11°C° 0 mm 3 mps 729 mmHg 51%
    11:00 +12°C° 0 mm 3 mps 729 mmHg 50%
    12:00 +13°C° 0 mm 3 mps 728 mmHg 49%
    13:00 +14°C° 0 mm 3 mps 728 mmHg 47%
    14:00 +14°C° 0 mm 3 mps 728 mmHg 49%
    15:00 +14°C° 0 mm 3 mps 728 mmHg 52%
    16:00 +14°C° 0 mm 3 mps 727 mmHg 54%
    17:00 +13°C° 0 mm 2 mps 727 mmHg 57%
    18:00 +12°C° 0 mm 2 mps 727 mmHg 60%
    19:00 +9°C° 0 mm 2 mps 727 mmHg 63%
    20:00 +9°C° 0 mm 2 mps 727 mmHg 63%
    21:00 +8°C° 0 mm 2 mps 727 mmHg 64%
    22:00 +8°C° 0 mm 2 mps 727 mmHg 64%
    23:00 +8°C° 0 mm 2 mps 726 mmHg 65%

    28 September, Friday

    Time Temperature Precipitation Wind Pressure Humidity
    00:00 +8°C° 0 mm 2 mps 726 mmHg 66%
    01:00 +7°C° 0 mm 2 mps 726 mmHg 67%
    02:00 +7°C° 0 mm 2 mps 725 mmHg 67%
    03:00 +7°C° 0 mm 2 mps 725 mmHg 67%
    04:00 +7°C° 0 mm 2 mps 724 mmHg 68%
    05:00 +7°C° 0 mm 2 mps 724 mmHg 66%
    06:00 +8°C° 0 mm 3 mps 724 mmHg 64%
    07:00 +9°C° 0 mm 3 mps 723 mmHg 62%
    08:00 +11°C° 0 mm 3 mps 723 mmHg 57%
    09:00 +13°C° 0 mm 3 mps 723 mmHg 52%
    10:00 +15°C° 0 mm 4 mps 723 mmHg 47%
    11:00 +17°C° 0 mm 4 mps 723 mmHg 46%
    12:00 +18°C° 0 mm 4 mps 723 mmHg 45%
    13:00 +20°C° 0 mm 4 mps 722 mmHg 43%
    14:00 +19°C° 0 mm 3 mps 722 mmHg 46%
    15:00 +18°C° 0 mm 3 mps 721 mmHg 49%
    16:00 +18°C° 0 mm 2 mps 721 mmHg 52%
    17:00 +16°C° 0 mm 2 mps 721 mmHg 56%
    18:00 +14°C° 0 mm 2 mps 720 mmHg 60%
    19:00 +12°C° 0 mm 1 mps 720 mmHg 64%
    20:00 +11°C° 0 mm 1 mps 720 mmHg 66%
    21:00 +11°C° 0 mm 1 mps 720 mmHg 68%
    22:00 +10°C° 0 mm 1 mps 720 mmHg 70%
    23:00 +10°C° 0 mm 1 mps 720 mmHg 73%

    29 September, Saturday

    Time Temperature Precipitation Wind Pressure Humidity
    00:00 +9°C° 0 mm 1 mps 720 mmHg 76%
    01:00 +9°C° 0 mm 1 mps 720 mmHg 80%
    02:00 +9°C° 0 mm 1 mps 720 mmHg 83%
    03:00 +9°C° 0 mm 1 mps 720 mmHg 87%
    04:00 +8°C° 0 mm 1 mps 720 mmHg 91%
    05:00 +8°C° 0 mm 2 mps 721 mmHg 90%
    06:00 +9°C° 0 mm 2 mps 721 mmHg 89%
    07:00 +9°C° 0 mm 3 mps 721 mmHg 89%
    08:00 +10°C° 0.2 mm 3 mps 722 mmHg 85%
    09:00 +10°C° 0.2 mm 4 mps 722 mmHg 81%
    10:00 +11°C° 0.2 mm 4 mps 722 mmHg 77%
    11:00 +11°C° 0.1 mm 4 mps 723 mmHg 71%
    12:00 +12°C° 0.1 mm 4 mps 723 mmHg 66%
    13:00 +12°C° 0.1 mm 4 mps 723 mmHg 60%
    14:00 +12°C° 0 mm 4 mps 723 mmHg 60%
    15:00 +12°C° 0 mm 4 mps 723 mmHg 60%
    16:00 +12°C° 0 mm 4 mps 723 mmHg 59%
    17:00 +10°C° 0 mm 3 mps 723 mmHg 67%
    18:00 +8°C° 0 mm 3 mps 723 mmHg 74%
    19:00 +7°C° 0 mm 2 mps 724 mmHg 82%
    20:00 +7°C° 0 mm 2 mps 724 mmHg 85%
    21:00 +6°C° 0 mm 2 mps 724 mmHg 87%
    22:00 +6°C° 0 mm 2 mps 724 mmHg 90%
    23:00 +5°C° 0 mm 2 mps 724 mmHg 90%

    30 September, Sunday

    Time Temperature Precipitation Wind Pressure Humidity
    00:00 +5°C° 0 mm 2 mps 724 mmHg 91%
    01:00 +5°C° 0 mm 2 mps 724 mmHg 91%
    02:00 +4°C° 0 mm 2 mps 724 mmHg 91%
    03:00 +4°C° 0 mm 2 mps 724 mmHg 92%
    04:00 +4°C° 0 mm 2 mps 724 mmHg 92%
    05:00 +4°C° 0 mm 2 mps 724 mmHg 90%
    06:00 +5°C° 0 mm 2 mps 724 mmHg 88%
    07:00 +5°C° 0 mm 2 mps 724 mmHg 86%
    08:00 +7°C° 0 mm 2 mps 724 mmHg 80%
    09:00 +9°C° 0 mm 2 mps 724 mmHg 74%
    10:00 +10°C° 0 mm 2 mps 724 mmHg 69%
    11:00 +12°C° 0 mm 2 mps 724 mmHg 67%
    12:00 +13°C° 0 mm 2 mps 724 mmHg 65%
    13:00 +14°C° 0 mm 2 mps 723 mmHg 63%
    14:00 +14°C° 0 mm 2 mps 723 mmHg 65%
    15:00 +14°C° 0 mm 2 mps 722 mmHg 67%
    16:00 +14°C° 0 mm 1 mps 722 mmHg 69%
    17:00 +12°C° 0 mm 1 mps 722 mmHg 76%
    18:00 +10°C° 0 mm 1 mps 722 mmHg 83%
    19:00 +9°C° 0 mm 1 mps 722 mmHg 90%
    20:00 +8°C° 0 mm 1 mps 722 mmHg 91%
    21:00 +8°C° 0 mm 1 mps 722 mmHg 92%
    22:00 +8°C° 0 mm 1 mps 721 mmHg 92%
    23:00 +7°C° 0 mm 1 mps 721 mmHg 92%
    Show more